SWA862 KSAN-KPHX

Flight info

Callsign SWA862
Flight time 0h 48m
Altitude 27000
Route ZZOOO4 HOGGZ HYDRR1
Aircraft B737/M-SADE2E3GIJ4RWZ/LB1D1

Departure

Time 2026-04-20 18:08
Airport San Diego International Airport (KSAN)

Arrival

Time 2026-04-20 18:56
Airport Phoenix Sky Harbor International Airport (KPHX)
Time Latitude Longitude Altitude Speed Heading
2026-04-20 17:06 32.73323 -117.19610 23 ft 0 kts 196°
2026-04-20 17:56 32.73338 -117.19605 22 ft 4 kts 197°
2026-04-20 17:56 32.73364 -117.19595 23 ft 4 kts 197°
2026-04-20 17:57 32.73385 -117.19588 22 ft 4 kts 191°
2026-04-20 17:57 32.73403 -117.19592 23 ft 4 kts 114°
2026-04-20 17:57 32.73410 -117.19619 23 ft 2 kts 106°
2026-04-20 17:57 32.73411 -117.19620 22 ft 0 kts 106°
2026-04-20 18:00 32.73410 -117.19619 23 ft 2 kts 106°
2026-04-20 18:01 32.73402 -117.19582 22 ft 8 kts 105°
2026-04-20 18:01 32.73382 -117.19501 23 ft 13 kts 106°
2026-04-20 18:01 32.73353 -117.19378 23 ft 17 kts 106°
2026-04-20 18:01 32.73319 -117.19243 21 ft 17 kts 106°
2026-04-20 18:02 32.73288 -117.19111 23 ft 16 kts 105°
2026-04-20 18:02 32.73257 -117.18985 22 ft 16 kts 107°
2026-04-20 18:02 32.73228 -117.18863 23 ft 15 kts 106°
2026-04-20 18:02 32.73199 -117.18747 22 ft 14 kts 107°
2026-04-20 18:03 32.73173 -117.18636 23 ft 14 kts 106°
2026-04-20 18:03 32.73147 -117.18529 24 ft 13 kts 106°
2026-04-20 18:03 32.73122 -117.18426 21 ft 13 kts 105°
2026-04-20 18:03 32.73098 -117.18327 21 ft 12 kts 105°
2026-04-20 18:04 32.73075 -117.18229 23 ft 12 kts 107°
2026-04-20 18:04 32.73051 -117.18135 21 ft 12 kts 106°
2026-04-20 18:04 32.73029 -117.18043 23 ft 11 kts 106°
2026-04-20 18:04 32.73007 -117.17953 21 ft 11 kts 106°
2026-04-20 18:05 32.72963 -117.17782 21 ft 11 kts 108°
2026-04-20 18:05 32.72948 -117.17699 21 ft 10 kts 78°
2026-04-20 18:05 32.72955 -117.17675 21 ft 0 kts 71°
2026-04-20 18:06 32.72957 -117.17666 21 ft 4 kts 71°
2026-04-20 18:06 32.72988 -117.17612 23 ft 11 kts 28°
2026-04-20 18:07 32.73037 -117.17649 21 ft 6 kts 286°
2026-04-20 18:07 32.73046 -117.17687 21 ft 9 kts 286°
2026-04-20 18:07 32.73126 -117.18012 20 ft 85 kts 285°
2026-04-20 18:07 32.73366 -117.18993 44 ft 157 kts 287°
2026-04-20 18:08 32.73675 -117.20338 724 ft 174 kts 287°
2026-04-20 18:08 32.74024 -117.21727 1599 ft 182 kts 287°
2026-04-20 18:08 32.74396 -117.23285 2081 ft 211 kts 286°
2026-04-20 18:08 32.74816 -117.25051 2495 ft 234 kts 287°
2026-04-20 18:09 32.75279 -117.26947 3239 ft 243 kts 286°
2026-04-20 18:09 32.75751 -117.28888 4260 ft 244 kts 286°
2026-04-20 18:09 32.76221 -117.30829 5285 ft 247 kts 286°
2026-04-20 18:09 32.76531 -117.32801 6263 ft 251 kts 266°
2026-04-20 18:10 32.75988 -117.34751 7325 ft 253 kts 236°
2026-04-20 18:10 32.74678 -117.36153 8373 ft 259 kts 207°
2026-04-20 18:10 32.72929 -117.36634 9472 ft 262 kts 178°
2026-04-20 18:10 32.71181 -117.36042 10550 ft 266 kts 148°
2026-04-20 18:11 32.69812 -117.34591 11731 ft 266 kts 132°
2026-04-20 18:11 32.68655 -117.32861 12772 ft 270 kts 129°
2026-04-20 18:11 32.67494 -117.31064 13701 ft 278 kts 130°
2026-04-20 18:11 32.66291 -117.29232 14633 ft 285 kts 130°
2026-04-20 18:12 32.65039 -117.27369 15610 ft 291 kts 131°
2026-04-20 18:12 32.63767 -117.25474 16557 ft 298 kts 126°
2026-04-20 18:12 32.62954 -117.23170 17294 ft 315 kts 102°
2026-04-20 18:12 32.62674 -117.20461 17543 ft 346 kts 96°
2026-04-20 18:13 32.62459 -117.17506 17778 ft 374 kts 96°
2026-04-20 18:13 32.62208 -117.14374 18397 ft 386 kts 97°
2026-04-20 18:13 32.62009 -117.11170 19234 ft 393 kts 89°
2026-04-20 18:13 32.62557 -117.07990 20103 ft 398 kts 70°
2026-04-20 18:14 32.63582 -117.04924 20994 ft 402 kts 68°
2026-04-20 18:14 32.64636 -117.01876 21750 ft 407 kts 68°
2026-04-20 18:14 32.65694 -116.98739 22481 ft 412 kts 68°
2026-04-20 18:14 32.66626 -116.95497 23193 ft 418 kts 78°
2026-04-20 18:15 32.66856 -116.92055 23916 ft 420 kts 89°
2026-04-20 18:15 32.66889 -116.88572 24629 ft 424 kts 90°
2026-04-20 18:15 32.66916 -116.85051 25282 ft 430 kts 90°
2026-04-20 18:15 32.66970 -116.81484 25899 ft 435 kts 89°
2026-04-20 18:16 32.67047 -116.77880 26516 ft 439 kts 89°
2026-04-20 18:16 32.67131 -116.74242 27047 ft 444 kts 90°
2026-04-20 18:16 32.67133 -116.70629 27054 ft 433 kts 92°
2026-04-20 18:16 32.67062 -116.67082 27081 ft 427 kts 92°
2026-04-20 18:17 32.66973 -116.63567 27089 ft 426 kts 92°
2026-04-20 18:17 32.66890 -116.60048 27092 ft 427 kts 92°
2026-04-20 18:17 32.66818 -116.56522 27088 ft 427 kts 92°
2026-04-20 18:17 32.66755 -116.52987 27082 ft 428 kts 92°
2026-04-20 18:18 32.66698 -116.49456 27079 ft 428 kts 92°
2026-04-20 18:18 32.66637 -116.45899 27083 ft 438 kts 92°
2026-04-20 18:18 32.66591 -116.43429 27084 ft 448 kts 92°
2026-04-20 18:18 32.66651 -116.39683 27076 ft 460 kts 86°
2026-04-20 18:19 32.66957 -116.35915 27075 ft 468 kts 84°
2026-04-20 18:19 32.67367 -116.32074 27064 ft 467 kts 83°
2026-04-20 18:19 32.67788 -116.28261 27058 ft 466 kts 83°
2026-04-20 18:19 32.68185 -116.24454 27030 ft 465 kts 84°
2026-04-20 18:20 32.68554 -116.20646 27024 ft 464 kts 84°
2026-04-20 18:20 32.68904 -116.16828 27019 ft 464 kts 84°
2026-04-20 18:20 32.69242 -116.13026 27012 ft 463 kts 84°
2026-04-20 18:20 32.69579 -116.09224 27009 ft 463 kts 84°
2026-04-20 18:21 32.69916 -116.05419 27005 ft 463 kts 84°
2026-04-20 18:21 32.70254 -116.01618 27006 ft 463 kts 84°
2026-04-20 18:21 32.70600 -115.97819 27002 ft 463 kts 84°
2026-04-20 18:21 32.70950 -115.94025 27002 ft 463 kts 84°
2026-04-20 18:22 32.71301 -115.90227 27002 ft 463 kts 83°
2026-04-20 18:22 32.71655 -115.86426 26996 ft 464 kts 84°
2026-04-20 18:22 32.72006 -115.82620 26998 ft 464 kts 84°
2026-04-20 18:22 32.72355 -115.78809 26998 ft 464 kts 84°
2026-04-20 18:23 32.72702 -115.75002 26994 ft 464 kts 84°
2026-04-20 18:23 32.73049 -115.71190 26990 ft 464 kts 84°
2026-04-20 18:23 32.73394 -115.67382 26993 ft 464 kts 84°
2026-04-20 18:23 32.73739 -115.63570 26993 ft 465 kts 84°
2026-04-20 18:24 32.74083 -115.59769 26990 ft 464 kts 84°
2026-04-20 18:24 32.74426 -115.55958 26987 ft 464 kts 84°
2026-04-20 18:24 32.74766 -115.52140 26985 ft 464 kts 84°
2026-04-20 18:24 32.75042 -115.48327 26982 ft 464 kts 86°
2026-04-20 18:25 32.75173 -115.44500 26985 ft 463 kts 88°
2026-04-20 18:25 32.75236 -115.40676 26993 ft 463 kts 89°
2026-04-20 18:25 32.75283 -115.36853 26992 ft 463 kts 89°
2026-04-20 18:25 32.75335 -115.33025 26992 ft 463 kts 89°
2026-04-20 18:26 32.75400 -115.29201 26999 ft 463 kts 88°
2026-04-20 18:26 32.75475 -115.25379 26997 ft 463 kts 88°
2026-04-20 18:26 32.75557 -115.21557 26999 ft 463 kts 88°
2026-04-20 18:26 32.75642 -115.17785 27001 ft 463 kts 88°
2026-04-20 18:27 32.75728 -115.13961 26999 ft 463 kts 88°
2026-04-20 18:27 32.75814 -115.10139 27002 ft 463 kts 88°
2026-04-20 18:27 32.75898 -115.06314 27001 ft 463 kts 88°
2026-04-20 18:27 32.75980 -115.02484 26999 ft 464 kts 88°
2026-04-20 18:28 32.76062 -114.98661 27002 ft 464 kts 88°
2026-04-20 18:28 32.76141 -114.94831 27000 ft 464 kts 88°
2026-04-20 18:28 32.76218 -114.91003 26999 ft 464 kts 88°
2026-04-20 18:28 32.76294 -114.87171 26999 ft 464 kts 88°
2026-04-20 18:29 32.76370 -114.83335 27001 ft 464 kts 88°
2026-04-20 18:29 32.76444 -114.79515 27003 ft 464 kts 88°
2026-04-20 18:29 32.76518 -114.75690 26999 ft 464 kts 88°
2026-04-20 18:29 32.76591 -114.71858 27000 ft 464 kts 88°
2026-04-20 18:30 32.76664 -114.68026 27002 ft 464 kts 88°
2026-04-20 18:30 32.76735 -114.64204 27002 ft 464 kts 88°
2026-04-20 18:30 32.76803 -114.60373 26997 ft 464 kts 88°
2026-04-20 18:30 32.76863 -114.56540 27003 ft 464 kts 88°
2026-04-20 18:31 32.76916 -114.52710 27001 ft 464 kts 88°
2026-04-20 18:31 32.76967 -114.48871 27003 ft 464 kts 88°
2026-04-20 18:31 32.77017 -114.45048 26998 ft 464 kts 88°
2026-04-20 18:31 32.77068 -114.41204 26999 ft 464 kts 88°
2026-04-20 18:32 32.77119 -114.37374 27000 ft 464 kts 88°
2026-04-20 18:32 32.77170 -114.33535 27002 ft 464 kts 88°
2026-04-20 18:32 32.77220 -114.29702 27006 ft 464 kts 88°
2026-04-20 18:32 32.77268 -114.25862 26999 ft 465 kts 88°
2026-04-20 18:33 32.77316 -114.22045 26999 ft 465 kts 88°
2026-04-20 18:33 32.77363 -114.18197 26997 ft 465 kts 88°
2026-04-20 18:33 32.77410 -114.14361 27001 ft 465 kts 88°
2026-04-20 18:33 32.77455 -114.10525 27001 ft 465 kts 88°
2026-04-20 18:34 32.77502 -114.06684 27000 ft 464 kts 86°
2026-04-20 18:34 32.77750 -114.02857 26993 ft 463 kts 82°
2026-04-20 18:34 32.78179 -113.99071 27007 ft 462 kts 80°
2026-04-20 18:34 32.78663 -113.95294 27005 ft 462 kts 79°
2026-04-20 18:35 32.79140 -113.91516 27004 ft 462 kts 80°
2026-04-20 18:35 32.79589 -113.87736 27001 ft 462 kts 80°
2026-04-20 18:35 32.80015 -113.83947 27003 ft 462 kts 81°
2026-04-20 18:35 32.80426 -113.80165 27009 ft 462 kts 81°
2026-04-20 18:36 32.80835 -113.76374 27006 ft 462 kts 81°
2026-04-20 18:36 32.81244 -113.72592 27011 ft 461 kts 79°
2026-04-20 18:36 32.82096 -113.68947 27010 ft 456 kts 63°
2026-04-20 18:36 32.83749 -113.65767 27011 ft 450 kts 48°
2026-04-20 18:37 32.85804 -113.62966 27017 ft 449 kts 45°
2026-04-20 18:37 32.87880 -113.60251 27009 ft 450 kts 45°
2026-04-20 18:37 32.89961 -113.57542 26993 ft 437 kts 45°
2026-04-20 18:37 32.91982 -113.54884 26528 ft 430 kts 45°
2026-04-20 18:38 32.93967 -113.52243 25931 ft 425 kts 46°
2026-04-20 18:38 32.95911 -113.49634 25295 ft 418 kts 46°
2026-04-20 18:38 32.97826 -113.47053 24631 ft 413 kts 46°
2026-04-20 18:38 32.99715 -113.44502 23984 ft 408 kts 46°
2026-04-20 18:39 33.01588 -113.41974 23335 ft 404 kts 47°
2026-04-20 18:39 33.03437 -113.39475 22700 ft 399 kts 47°
2026-04-20 18:39 33.05263 -113.37006 22058 ft 396 kts 47°
2026-04-20 18:39 33.07063 -113.34570 21596 ft 389 kts 47°
2026-04-20 18:40 33.08843 -113.32162 21139 ft 385 kts 47°
2026-04-20 18:40 33.10610 -113.29771 20691 ft 382 kts 47°
2026-04-20 18:40 33.12365 -113.27396 20252 ft 380 kts 48°
2026-04-20 18:40 33.14110 -113.25034 19817 ft 380 kts 48°
2026-04-20 18:41 33.15850 -113.22677 19375 ft 379 kts 48°
2026-04-20 18:41 33.17591 -113.20319 18939 ft 378 kts 48°
2026-04-20 18:41 33.19328 -113.17966 18511 ft 377 kts 49°
2026-04-20 18:41 33.21053 -113.15628 18069 ft 375 kts 49°
2026-04-20 18:42 33.22771 -113.13296 17632 ft 374 kts 49°
2026-04-20 18:42 33.24488 -113.10963 17188 ft 373 kts 49°
2026-04-20 18:42 33.26173 -113.08628 16748 ft 367 kts 54°
2026-04-20 18:42 33.27285 -113.05950 16312 ft 356 kts 74°
2026-04-20 18:43 33.27631 -113.03073 15925 ft 346 kts 88°
2026-04-20 18:43 33.27701 -113.00241 15529 ft 338 kts 90°
2026-04-20 18:43 33.27733 -112.97460 15137 ft 333 kts 90°
2026-04-20 18:43 33.27771 -112.94706 14754 ft 330 kts 90°
2026-04-20 18:44 33.27820 -112.91967 14379 ft 329 kts 90°
2026-04-20 18:44 33.27879 -112.89242 14004 ft 326 kts 89°
2026-04-20 18:44 33.27944 -112.86546 13665 ft 322 kts 90°
2026-04-20 18:44 33.28010 -112.83881 13261 ft 319 kts 89°
2026-04-20 18:45 33.28326 -112.81291 12867 ft 315 kts 72°
2026-04-20 18:45 33.29184 -112.78917 12536 ft 308 kts 66°
2026-04-20 18:45 33.30086 -112.76621 12187 ft 302 kts 66°
2026-04-20 18:45 33.30957 -112.74369 11828 ft 297 kts 67°
2026-04-20 18:46 33.31810 -112.72117 11484 ft 295 kts 68°
2026-04-20 18:46 33.32640 -112.69900 11149 ft 291 kts 67°
2026-04-20 18:46 33.33456 -112.67742 10820 ft 286 kts 67°
2026-04-20 18:46 33.34287 -112.65565 10482 ft 282 kts 67°
2026-04-20 18:47 33.35090 -112.63473 10161 ft 278 kts 67°
2026-04-20 18:47 33.35901 -112.61360 9874 ft 273 kts 67°
2026-04-20 18:47 33.36685 -112.59304 9549 ft 271 kts 67°
2026-04-20 18:47 33.37462 -112.57264 9229 ft 269 kts 66°
2026-04-20 18:48 33.38237 -112.55236 8916 ft 267 kts 67°
2026-04-20 18:48 33.39000 -112.53226 8609 ft 264 kts 67°
2026-04-20 18:48 33.39747 -112.51255 8309 ft 262 kts 67°
2026-04-20 18:48 33.40504 -112.49251 8006 ft 260 kts 68°
2026-04-20 18:49 33.41206 -112.47270 7707 ft 258 kts 68°
2026-04-20 18:49 33.41885 -112.45323 7405 ft 255 kts 69°
2026-04-20 18:49 33.42573 -112.43346 7114 ft 253 kts 70°
2026-04-20 18:49 33.42920 -112.41340 6804 ft 249 kts 90°
2026-04-20 18:50 33.42904 -112.39279 6533 ft 245 kts 92°
2026-04-20 18:50 33.42890 -112.37244 6234 ft 243 kts 91°
2026-04-20 18:50 33.42879 -112.35235 5968 ft 240 kts 91°
2026-04-20 18:50 33.42877 -112.33248 5705 ft 236 kts 91°
2026-04-20 18:51 33.42876 -112.31314 5437 ft 228 kts 91°
2026-04-20 18:51 33.42877 -112.29444 5152 ft 223 kts 91°
2026-04-20 18:51 33.42897 -112.27605 4993 ft 217 kts 90°
2026-04-20 18:51 33.42921 -112.25844 4833 ft 207 kts 91°
2026-04-20 18:52 33.42910 -112.24150 4584 ft 201 kts 91°
2026-04-20 18:52 33.42913 -112.22489 4323 ft 198 kts 91°
2026-04-20 18:52 33.42913 -112.20841 4064 ft 196 kts 92°
2026-04-20 18:52 33.42912 -112.19233 3800 ft 190 kts 92°
2026-04-20 18:53 33.42906 -112.17659 3556 ft 186 kts 92°
2026-04-20 18:53 33.42903 -112.16108 3310 ft 185 kts 92°
2026-04-20 18:53 33.42902 -112.14616 3066 ft 176 kts 92°
2026-04-20 18:53 33.42899 -112.13147 2831 ft 172 kts 92°
2026-04-20 18:54 33.42896 -112.11737 2622 ft 172 kts 92°
2026-04-20 18:54 33.42894 -112.10308 2386 ft 168 kts 92°
2026-04-20 18:54 33.42894 -112.08980 2192 ft 149 kts 92°
2026-04-20 18:54 33.42890 -112.07791 1983 ft 140 kts 92°
2026-04-20 18:55 33.42890 -112.06639 1771 ft 139 kts 92°
2026-04-20 18:55 33.42896 -112.05502 1619 ft 134 kts 91°
2026-04-20 18:55 33.42890 -112.04394 1445 ft 132 kts 93°
2026-04-20 18:55 33.42888 -112.03301 1265 ft 131 kts 92°
2026-04-20 18:56 33.42889 -112.02222 1127 ft 126 kts 91°
2026-04-20 18:56 33.42885 -112.01412 1128 ft 68 kts 90°
2026-04-20 18:56 33.42885 -112.01091 1123 ft 21 kts 91°
2026-04-20 18:56 33.42892 -112.00925 1123 ft 19 kts 81°
2026-04-20 18:57 33.42924 -112.00797 1118 ft 12 kts 55°
2026-04-20 18:57 33.42980 -112.00719 1125 ft 12 kts 57°
2026-04-20 18:57 33.42995 -112.00631 1125 ft 10 kts 88°
2026-04-20 18:57 33.42996 -112.00553 1126 ft 9 kts 90°
2026-04-20 18:58 33.42995 -112.00488 1126 ft 7 kts 91°
2026-04-20 18:58 33.42994 -112.00427 1124 ft 7 kts 90°
2026-04-20 18:58 33.42995 -112.00368 1126 ft 7 kts 87°
2026-04-20 18:58 33.43025 -112.00329 1125 ft 7 kts 20°
2026-04-20 18:59 33.43073 -112.00322 1130 ft 8 kts
2026-04-20 18:59 33.43146 -112.00321 1130 ft 12 kts
2026-04-20 18:59 33.43205 -112.00237 1125 ft 14 kts 68°
2026-04-20 18:59 33.43214 -112.00123 1126 ft 14 kts 90°
2026-04-20 19:00 33.43214 -112.00012 1124 ft 13 kts 90°
2026-04-20 19:00 33.43213 -111.99905 1121 ft 13 kts 91°
2026-04-20 19:00 33.43211 -111.99803 1120 ft 12 kts 89°
2026-04-20 19:00 33.43214 -111.99701 1118 ft 12 kts 90°
2026-04-20 19:01 33.43214 -111.99602 1123 ft 12 kts 90°
2026-04-20 19:01 33.43266 -111.99548 1124 ft 12 kts 14°
2026-04-20 19:01 33.43337 -111.99528 1119 ft 10 kts
2026-04-20 19:01 33.43399 -111.99529 1119 ft 7 kts
2026-04-20 19:02 33.43423 -111.99529 1117 ft 3 kts 359°
2026-04-20 19:02 33.43441 -111.99513 1122 ft 4 kts 65°
2026-04-20 19:02 33.43443 -111.99491 1123 ft 0 kts 88°